Terug naar catalogus

STARLINK-38165

ActiefCommunicatieSSO
NORAD 100191·PAYLOAD·🇺🇸 United States

Gelanceerd Aug 1, 2026 vanaf Vandenberg Space Force Base

Loading…

Volgende Passages (komende 24 uur)

TLE

VersSource: Space-Track

Epoch: Sep 14, 2026, 07:15 UTC

1 A0191U 26175N   26257.30256367  .00118868  00000-0  78583-3 0  9992
2 A0191  97.2836  99.4785 0002118  73.2407 286.9091 15.75216432  8206

Volg STARLINK-38165 in realtime met AllMySat

Download on the App Store